Location: Unspecified
(0.0000°N, 0.0000°E)
Time: 00:01:34
(UTC+02:00)

NOAA 12 - Visible Passes

Search period start: 30 July 2015 00:00
Search period end: 09 August 2015 00:00
Orbit: 795 x 816 km, 98.6° (Epoch: 29 July)

Date Brightness Start Highest point End Pass type
(mag) Time Alt. Az. Time Alt. Az. Time Alt. Az.
30 Jul 4.3 20:52:34 10° SSE 20:57:40 49° ENE 21:02:46 10° N visible
30 Jul 7.1 22:36:49 10° WSW 22:37:25 10° W 22:37:30 10° W visible
31 Jul 5.2 20:28:36 10° SE 20:32:46 25° E 20:37:05 10° NNE visible
31 Jul 6.3 22:08:25 10° SSW 22:12:28 21° WSW 22:16:17 10° NW visible
01 Aug 5.2 21:42:33 10° S 21:47:34 42° WSW 21:52:30 10° NNW visible
02 Aug 4.1 21:17:22 10° S 21:22:42 84° WSW 21:27:59 10° NNW visible
03 Aug 4.3 20:52:44 10° SSE 20:57:50 49° ENE 21:02:55 10° N visible
04 Aug 5.2 20:28:45 10° SE 20:32:56 25° ENE 20:37:14 10° NNE visible
04 Aug 6.4 22:08:36 10° SSW 22:12:38 21° WSW 22:16:25 10° NW visible
05 Aug 5.3 21:42:43 10° S 21:47:43 41° WSW 21:52:38 10° NNW visible
06 Aug 4.1 21:17:32 10° S 21:22:51 83° WSW 21:28:08 10° NNW visible
07 Aug 4.3 20:52:53 10° SSE 20:57:59 49° ENE 21:03:04 10° N visible
08 Aug 5.2 20:28:55 10° SE 20:33:05 25° E 20:37:22 10° NNE visible
08 Aug 6.4 22:08:46 10° SSW 22:12:47 21° WSW 22:16:33 10° NW visible
